TimeEDT,TemperatureF,Dew PointF,Humidity,Sea Level PressureIn,VisibilityMPH,Wind Direction,Wind SpeedMPH,Gust SpeedMPH,PrecipitationIn,Events,Conditions,WindDirDegrees,DateUTC
12:53 AM,69.1,57.0,65,30.16,10.0,East,6.9,-,N/A,,Clear,80,2013-05-15 04:53:00
1:53 AM,68.0,57.0,68,30.15,10.0,East,8.1,-,N/A,,Clear,80,2013-05-15 05:53:00
2:53 AM,66.9,57.0,70,30.14,10.0,ENE,5.8,-,N/A,,Clear,70,2013-05-15 06:53:00
3:53 AM,64.9,55.9,73,30.14,10.0,ENE,4.6,-,N/A,,Clear,60,2013-05-15 07:53:00
4:53 AM,64.0,55.9,75,30.14,10.0,ENE,6.9,-,N/A,,Clear,60,2013-05-15 08:53:00
5:53 AM,63.0,55.9,78,30.15,10.0,ENE,5.8,-,N/A,,Clear,60,2013-05-15 09:53:00
6:53 AM,63.0,55.9,78,30.15,10.0,NE,4.6,-,N/A,,Clear,50,2013-05-15 10:53:00
7:53 AM,68.0,55.9,65,30.17,10.0,ENE,6.9,-,N/A,,Clear,60,2013-05-15 11:53:00
8:53 AM,73.9,57.0,55,30.17,10.0,ENE,8.1,-,N/A,,Clear,60,2013-05-15 12:53:00
9:53 AM,78.1,57.0,48,30.18,10.0,East,9.2,-,N/A,,Clear,90,2013-05-15 13:53:00
10:53 AM,80.1,59.0,48,30.18,10.0,East,10.4,-,N/A,,Clear,90,2013-05-15 14:53:00
11:53 AM,82.0,60.1,47,30.17,10.0,Variable,6.9,-,N/A,,Partly Cloudy,0,2013-05-15 15:53:00
12:53 PM,82.9,57.9,42,30.16,10.0,ENE,6.9,-,N/A,,Scattered Clouds,70,2013-05-15 16:53:00
1:53 PM,86.0,57.9,38,30.14,10.0,East,10.4,-,N/A,,Scattered Clouds,90,2013-05-15 17:53:00
2:53 PM,86.0,57.9,38,30.11,10.0,East,11.5,18.4,N/A,,Partly Cloudy,100,2013-05-15 18:53:00
3:53 PM,82.0,62.1,51,30.09,10.0,WSW,10.4,-,N/A,,Mostly Cloudy,250,2013-05-15 19:53:00
4:53 PM,82.0,61.0,49,30.08,10.0,WSW,9.2,-,N/A,,Mostly Cloudy,250,2013-05-15 20:53:00
5:53 PM,81.0,62.1,52,30.07,10.0,Variable,3.5,-,N/A,,Overcast,0,2013-05-15 21:53:00
6:53 PM,82.0,57.0,42,30.07,10.0,East,12.7,16.1,N/A,,Mostly Cloudy,80,2013-05-15 22:53:00
7:53 PM,80.1,55.0,42,30.07,10.0,East,9.2,-,N/A,,Mostly Cloudy,80,2013-05-15 23:53:00
8:53 PM,77.0,57.0,50,30.09,10.0,East,10.4,-,N/A,,Partly Cloudy,80,2013-05-16 00:53:00
9:53 PM,75.0,59.0,57,30.10,10.0,East,8.1,-,N/A,,Clear,90,2013-05-16 01:53:00
10:53 PM,73.0,60.1,64,30.11,10.0,East,6.9,-,N/A,,Clear,100,2013-05-16 02:53:00
11:53 PM,72.0,61.0,68,30.10,10.0,ESE,9.2,-,N/A,,Clear,110,2013-05-16 03:53:00